Location: Brivio
(45.7333°N, 9.4500°E)
Time: 02:15:29
(UTC+00:00)

N. Korean satellite - Pass Details

Date: 16 December 2019
Orbit: 454 x 507 km, 97.2° (Epoch: 23 January)

Event Time Altitude Azimuth Distance (km) Brightness Sun altitude
Rises 16:11:11 0° 162° (SSE) 2,594 10.4 -5.7°
Reaches altitude 10° 16:13:16 10° 160° (SSE) 1,710 9.4 -6.1°
Maximum altitude 16:16:56 73° 75° (ENE) 529 6.6 -6.6°
Drops below altitude 10° 16:20:36 10° 352° (N) 1,702 9.1 -7.2°
Sets 16:22:40 0° 350° (N) 2,581 10.1 -7.5°
